[[{"header":{"parameterUnit":"m.s-1","parameterCategory":1,"la1":30.2991,"la2":30.254,"lo1":-89.0895,"lo2":-89.0444,"dy":0.0017,"dx":0.0017,"nx":28,"ny":28,"refTime":"2024-04-10T21:00:00:Z","depth":0,"parameterNumber":2,"parameterNumberName":"U-component_of_WINDS"},"data":[0,0,0,0,0,0,0,0,0,0,0,0,0,0,0,0,0,0,0,0,0,0,0,0,0,0,0,0,0,0,0,0,0,0,0,0,0,0,0,0,0,0,0,0,0,0,0,0,0,0,0,0,0,0,0,0,0,0,2.3722,2.3723,0,2.379,2.3791,2.3792,2.3773,2.3772,2.377,2.3769,2.3839,2.3842,2.3846,0,0,0,0,0,0,0,0,0,0,0,0,0,2.3577,2.3579,2.3722,2.3723,2.3724,2.379,2.3791,2.3792,2.3773,2.3771,2.377,2.3768,2.3838,2.3842,2.3846,0,0,0,0,0,0,0,0,0,0,0,0,0,2.3642,2.358,2.3722,2.3722,2.3723,2.379,2.3791,2.3792,2.3774,2.3771,2.3769,2.3767,2.3837,2.3842,2.3846,2.3917,0,0,2.3861,2.3863,0,0,0,0,0,0,0,0,2.3638,2.3647,2.3721,2.3722,2.3723,2.3771,2.3766,2.3834,2.3774,2.3754,2.3769,2.3766,2.3818,2.3824,2.3842,2.3921,2.3924,2.3861,2.3864,2.3866,2.3868,0,0,0,0,0,0,0,2.3634,2.3644,2.3749,2.3722,2.3724,2.372,2.3727,2.3779,2.3797,2.3756,2.3755,2.3763,2.3818,2.3837,2.3843,2.3925,2.3861,2.3865,2.3868,2.387,2.4068,2.407,0,0,0,0,0,0,2.3628,2.364,2.3747,2.3751,2.3675,2.3724,2.3732,2.3758,2.3797,2.38,2.3765,2.3762,2.383,2.3838,2.3846,2.3933,2.3866,2.3871,2.3873,2.4065,2.4068,2.4071,0,0,0,0,0,0,2.3625,2.3638,2.3744,2.3696,2.3709,2.3729,2.3758,2.376,2.3779,2.3803,2.3806,2.3781,2.3829,2.3839,2.39,2.3935,2.3873,2.3877,2.4062,2.4066,2.407,2.4107,0,0,0,0,0,0,2.3621,2.3637,2.3664,2.3696,2.3711,2.3797,2.376,2.3763,2.3787,2.3784,2.3819,2.3823,2.3828,2.3893,2.3905,2.3941,2.3881,2.4059,2.4064,2.4068,2.4103,2.4112,2.4119,0,0,0,0,0,2.3616,2.3671,2.3665,2.3678,2.3745,2.3799,2.3808,2.3812,2.379,2.3818,2.3833,2.3822,2.3929,2.39,2.3913,2.395,2.4057,2.4063,2.4068,2.4099,2.411,2.4119,0,0,0,0,0,0,2.3641,2.3675,2.3669,2.3736,2.3765,2.3796,2.383,2.3823,2.3859,2.3855,2.3859,2.3867,2.393,2.3946,2.3913,2.4022,2.399,2.3998,2.4009,2.402,2.4028,2.4023,2.3885,0,0,0,0,0,2.3655,2.3695,2.3723,2.378,2.3794,2.381,2.3834,2.3835,2.3865,2.3877,2.3897,2.3927,2.3968,2.3995,2.4033,2.4105,2.4113,2.4138,2.4146,2.4152,2.4159,2.4201,2.4212,2.4088,2.4088,2.4088,0,0,2.3683,2.3707,2.3732,2.3785,2.3808,2.3851,2.382,2.3866,2.3898,2.3884,2.3943,2.396,2.3993,2.4061,2.4091,2.4076,2.4195,2.4159,2.4164,2.4168,2.4207,2.4219,2.4229,2.4092,2.4091,2.4091,0,0,2.3756,2.3778,2.3828,2.3852,2.3886,2.3897,2.3909,2.3941,2.3952,2.4011,2.4002,2.4041,2.411,2.4135,2.4157,2.4242,2.4233,2.4255,2.4297,2.4337,2.4347,2.4356,2.4387,2.4399,2.4262,2.4262,2.4262,0,2.3787,2.3851,2.3855,2.3903,2.3927,2.3917,2.3969,2.3991,2.4037,2.4054,2.4037,2.4125,2.4147,2.4221,2.4242,2.426,2.4275,2.4251,2.4345,2.4354,2.4362,2.4392,2.4404,2.4264,2.4264,2.4264,2.4264,0,2.3887,2.3932,2.3969,2.4014,2.4042,2.4092,2.4104,2.4133,2.4133,2.4145,2.4207,2.4233,2.4278,2.4296,2.4295,2.437,2.436,2.4344,2.4312,2.4376,2.4405,2.4417,2.4268,2.4267,2.4266,2.4266,0,0,2.3978,2.4026,2.4039,2.406,2.4099,2.4134,2.4183,2.4227,2.4253,2.4285,2.4328,2.4388,2.4374,2.4399,2.4401,2.4436,2.4504,2.4416,2.4417,2.4432,2.459,2.4603,2.4616,2.4498,2.4501,2.4502,2.4588,0,2.4055,2.4142,2.4149,2.4228,2.427,2.4262,2.4306,2.4334,2.4348,2.4386,2.4401,2.4444,2.4422,2.4437,2.4471,2.4488,2.4536,2.4482,2.4539,2.4541,2.4531,2.4631,2.4644,2.4723,2.4599,2.4601,2.4602,0,2.4157,2.4193,2.4277,2.4311,2.4329,2.4368,2.441,2.4446,2.448,2.4487,2.4516,2.4514,2.4567,2.4533,2.4606,2.4569,2.4593,2.4605,2.4608,2.4614,2.4576,2.464,2.4749,2.4761,2.462,2.4618,2.4617,0,2.4216,2.4286,2.4345,2.4363,2.4405,2.4433,2.4451,2.4482,2.4509,2.4546,2.4564,2.4606,2.4629,2.4663,2.4673,2.4647,2.4746,2.4713,2.4755,2.4755,2.4776,2.4775,2.4891,2.479,2.479,2.479,2.479,0,2.4303,2.4354,2.4373,2.4409,2.4468,2.4475,2.4533,2.455,2.4578,2.4619,2.4614,2.4652,2.4663,2.4704,2.4712,2.4772,2.4782,2.4791,2.4793,2.4792,2.4791,2.4808,2.4803,2.4793,2.4793,2.4792,2.4791,0,2.4378,2.4393,2.4457,2.4492,2.4501,2.4543,2.4573,2.4609,2.4622,2.4674,2.4686,2.4707,2.4755,2.4769,2.4826,2.4832,2.4903,2.4899,2.4891,2.4892,2.4934,2.493,2.5065,2.5083,2.497,2.4971,2.4972,0,2.4433,2.4473,2.4512,2.4539,2.4559,2.4602,2.463,2.4639,2.4668,2.471,2.4741,2.4789,2.4827,2.4904,2.4925,2.4969,2.4967,2.5011,2.4973,2.4972,2.4969,2.4967,2.4971,2.5018,2.5019,2.502,2.5021,0,2.4528,2.4534,2.4574,2.4617,2.4651,2.4685,2.4718,2.474,2.4755,2.4788,2.4837,2.4867,2.4926,2.4973,2.5019,2.5038,2.5033,2.5033,2.5045,2.5045,2.504,2.5044,2.4912,2.503,2.5029,2.5028,2.5028,2.5027,2.4596,2.4632,2.4665,2.4711,2.4737,2.4768,2.4804,2.4823,2.4864,2.4913,2.4916,2.4969,2.5003,2.5064,2.5086,2.5129,2.5116,2.5133,2.5138,2.5142,2.5146,2.5033,2.5137,2.5137,2.5136,2.5136,2.5136,0,2.4692,2.4714,2.4756,2.4803,2.4839,2.4831,2.4867,2.4898,2.4945,2.4978,2.5016,2.5073,2.512,2.5145,2.5191,2.5221,2.522,2.5233,2.5231,2.5236,2.5155,2.514,2.5233,2.5233,2.5233,2.5233,2.5233,2.5233,2.4747,2.4808,2.4817,2.4892,2.4913,2.4965,2.4987,2.5017,2.5043,2.5107,2.5146,2.5162,2.5192,2.5241,2.5284,2.529,2.5308,2.5323,2.5328,2.5252,2.5242,2.5232,2.5218,2.5327,2.5327,2.5407,2.5407,2.5408]},{"header":{"parameterUnit":"m.s-1","parameterCategory":1,"la1":30.2991,"la2":30.254,"lo1":-89.0895,"lo2":-89.0444,"dy":0.0017,"dx":0.0017,"nx":28,"ny":28,"refTime":"2024-04-10T21:00:00:Z","depth":0,"parameterNumber":3,"parameterNumberName":"V-component_of_WINDS"},"data":[0,0,0,0,0,0,0,0,0,0,0,0,0,0,0,0,0,0,0,0,0,0,0,0,0,0,0,0,0,0,0,0,0,0,0,0,0,0,0,0,0,0,0,0,0,0,0,0,0,0,0,0,0,0,0,0,0,0,-3.9137,-3.9138,0,-3.9203,-3.9204,-3.9205,-3.9207,-3.9206,-3.9205,-3.9205,-3.9271,-3.9274,-3.9276,0,0,0,0,0,0,0,0,0,0,0,0,0,-3.9013,-3.9015,-3.9137,-3.9138,-3.9139,-3.9203,-3.9204,-3.9205,-3.9207,-3.9206,-3.9205,-3.9204,-3.927,-3.9273,-3.9276,0,0,0,0,0,0,0,0,0,0,0,0,0,-3.9072,-3.9016,-3.9137,-3.9148,-3.9149,-3.9203,-3.9204,-3.9205,-3.9207,-3.9206,-3.9205,-3.9204,-3.9269,-3.9273,-3.9277,-3.9324,0,0,-3.9288,-3.929,0,0,0,0,0,0,0,0,-3.9068,-3.9076,-3.9145,-3.9147,-3.9149,-3.9196,-3.9185,-3.9245,-3.9208,-3.9185,-3.9205,-3.9203,-3.9247,-3.9252,-3.9267,-3.9327,-3.933,-3.9289,-3.9291,-3.9292,-3.9293,0,0,0,0,0,0,0,-3.9064,-3.9073,-3.9163,-3.9146,-3.9148,-3.9149,-3.9156,-3.9196,-3.9222,-3.9187,-3.9187,-3.9195,-3.9248,-3.9264,-3.9269,-3.9331,-3.9288,-3.9292,-3.9294,-3.9296,-3.9435,-3.9437,0,0,0,0,0,0,-3.9058,-3.907,-3.9161,-3.9165,-3.9105,-3.9152,-3.916,-3.9182,-3.9221,-3.9226,-3.9196,-3.9195,-3.9258,-3.9265,-3.9271,-3.9331,-3.9292,-3.9296,-3.9298,-3.9434,-3.9436,-3.9437,0,0,0,0,0,0,-3.9055,-3.9066,-3.9158,-3.9118,-3.913,-3.9156,-3.918,-3.9184,-3.92,-3.9228,-3.9233,-3.9208,-3.9257,-3.9266,-3.9312,-3.9333,-3.9298,-3.9301,-3.9432,-3.9434,-3.9436,-3.945,0,0,0,0,0,0,-3.9052,-3.9065,-3.9083,-3.9118,-3.9132,-3.9197,-3.9181,-3.9186,-3.9207,-3.9206,-3.9241,-3.9245,-3.9257,-3.9306,-3.9315,-3.9338,-3.9304,-3.943,-3.9433,-3.9436,-3.9448,-3.9452,-3.9456,0,0,0,0,0,-3.9047,-3.9084,-3.9084,-3.9095,-3.9155,-3.9199,-3.9206,-3.922,-3.9208,-3.9227,-3.9246,-3.9244,-3.9329,-3.9311,-3.9321,-3.9345,-3.9429,-3.9432,-3.9435,-3.9446,-3.9451,-3.9456,0,0,0,0,0,0,-3.905,-3.9088,-3.9089,-3.9138,-3.9165,-3.9199,-3.9223,-3.9225,-3.9255,-3.9253,-3.9268,-3.9276,-3.9321,-3.9338,-3.9316,-3.9394,-3.9378,-3.9383,-3.9382,-3.9388,-3.9392,-3.9387,-3.9307,0,0,0,0,0,-3.9056,-3.9088,-3.912,-3.916,-3.9174,-3.9196,-3.9215,-3.9224,-3.9252,-3.9263,-3.9285,-3.9313,-3.9346,-3.9368,-3.94,-3.945,-3.9458,-3.9472,-3.9476,-3.9479,-3.9484,-3.9514,-3.9521,-3.9448,-3.9448,-3.9448,0,0,-3.9069,-3.9094,-3.9113,-3.9161,-3.9183,-3.9217,-3.9206,-3.9241,-3.9267,-3.9269,-3.9314,-3.9331,-3.9363,-3.9411,-3.9434,-3.9426,-3.9507,-3.9484,-3.9486,-3.9489,-3.9518,-3.9525,-3.9531,-3.945,-3.945,-3.9449,0,0,-3.911,-3.9132,-3.9169,-3.9191,-3.9225,-3.924,-3.9249,-3.9283,-3.9295,-3.9341,-3.9343,-3.9374,-3.943,-3.9454,-3.9473,-3.9525,-3.9526,-3.9535,-3.9558,-3.9587,-3.9593,-3.9598,-3.9618,-3.9625,-3.954,-3.954,-3.954,0,-3.9122,-3.9173,-3.9187,-3.9224,-3.9245,-3.925,-3.9288,-3.9309,-3.9351,-3.9366,-3.9357,-3.943,-3.9451,-3.9507,-3.952,-3.9535,-3.9546,-3.9531,-3.9591,-3.9596,-3.9601,-3.9621,-3.9628,-3.9541,-3.9541,-3.9541,-3.9541,0,-3.9187,-3.9222,-3.9248,-3.929,-3.9315,-3.9351,-3.9371,-3.9395,-3.9401,-3.9417,-3.9464,-3.949,-3.9529,-3.9542,-3.9548,-3.9599,-3.9594,-3.9588,-3.9572,-3.9609,-3.9628,-3.9635,-3.9542,-3.9542,-3.9542,-3.9541,0,0,-3.9231,-3.9282,-3.9291,-3.9311,-3.935,-3.9378,-3.9415,-3.9454,-3.9474,-3.9504,-3.9536,-3.9585,-3.958,-3.9602,-3.9611,-3.9636,-3.9679,-3.9627,-3.9628,-3.9637,-3.9739,-3.9744,-3.9752,-3.9679,-3.968,-3.9682,-3.9737,0,-3.9277,-3.9345,-3.936,-3.9418,-3.9452,-3.9458,-3.9491,-3.9518,-3.9535,-3.9566,-3.9584,-3.9619,-3.9609,-3.9623,-3.9648,-3.9668,-3.9699,-3.9664,-3.9711,-3.9712,-3.9704,-3.9762,-3.9767,-3.9818,-3.9744,-3.9745,-3.9746,0,-3.9341,-3.9373,-3.9436,-3.9472,-3.9487,-3.9516,-3.9554,-3.9583,-3.9615,-3.9626,-3.9651,-3.9658,-3.9698,-3.968,-3.9736,-3.9712,-3.9732,-3.9745,-3.9747,-3.9753,-3.9732,-3.977,-3.9834,-3.9842,-3.9757,-3.9756,-3.9756,0,-3.9368,-3.9428,-3.9473,-3.949,-3.9533,-3.9554,-3.9573,-3.9604,-3.9627,-3.966,-3.9675,-3.9711,-3.9732,-3.976,-3.9777,-3.9762,-3.9833,-3.9815,-3.9843,-3.9843,-3.9859,-3.9858,-3.9928,-3.9869,-3.9869,-3.9869,-3.9869,0,-3.942,-3.9458,-3.9487,-3.9515,-3.9558,-3.9575,-3.9618,-3.9636,-3.9664,-3.9697,-3.9703,-3.9733,-3.9753,-3.9786,-3.9799,-3.9845,-3.9854,-3.9864,-3.9867,-3.9864,-3.9863,-3.9878,-3.9875,-3.9871,-3.9871,-3.987,-3.987,0,-3.9458,-3.9479,-3.9529,-3.9567,-3.9577,-3.9608,-3.964,-3.9668,-3.9684,-3.9726,-3.9736,-3.9763,-3.9802,-3.9822,-3.987,-3.988,-3.9932,-3.9932,-3.9922,-3.9923,-3.9951,-3.9948,-4.0034,-4.0046,-3.9978,-3.9979,-3.9979,0,-3.949,-3.952,-3.9561,-3.9584,-3.9604,-3.9639,-3.9663,-3.9681,-3.9706,-3.9746,-3.977,-3.981,-3.9843,-3.9906,-3.993,-3.9968,-3.997,-3.9997,-3.9976,-3.9973,-3.9973,-3.9971,-3.9975,-4.0002,-4.0002,-4.0003,-4.0003,0,-3.9545,-3.9555,-3.9589,-3.9628,-3.9657,-3.9688,-3.9718,-3.9736,-3.9759,-3.9787,-3.9828,-3.9854,-3.9905,-3.9946,-3.9986,-4.0005,-4.0009,-4.001,-4.0019,-4.0016,-4.001,-4.0015,-3.9934,-4.0008,-4.0007,-4.0007,-4.0007,-4.0007,-3.9583,-3.961,-3.9644,-3.9683,-3.9708,-3.9737,-3.9766,-3.9788,-3.9822,-3.9866,-3.9874,-3.9919,-3.9952,-4.0006,-4.0027,-4.0063,-4.0056,-4.0069,-4.0072,-4.0075,-4.0078,-4.0003,-4.007,-4.0069,-4.0069,-4.0069,-4.0069,0,-3.9639,-3.9662,-3.9698,-3.9741,-3.9772,-3.9773,-3.9808,-3.9834,-3.9873,-3.9903,-3.9937,-3.9985,-4.0025,-4.0052,-4.0093,-4.0116,-4.0119,-4.0126,-4.0125,-4.013,-4.008,-4.0069,-4.0124,-4.0124,-4.0124,-4.0124,-4.0124,-4.0124,-3.9673,-3.9721,-3.9734,-3.9795,-3.9817,-3.9861,-3.9881,-3.9909,-3.9933,-3.9988,-4.0021,-4.0039,-4.0069,-4.0112,-4.0149,-4.0156,-4.0172,-4.018,-4.0187,-4.0139,-4.0134,-4.0128,-4.0118,-4.0182,-4.0182,-4.0235,-4.0235,-4.0236]}]]